Weather History for KCWA - December, 2012

Change the Weather History Date:

Tuesday, December 11, 2012

  Actual Average (KAUW) Record (KAUW)
Temperature  
Mean Temperature 17 °F 20 °F  
Max Temperature 19 °F 28 °F 53 °F (1949)
Min Temperature 15 °F 13 °F -16 °F (1977)
Degree Days  
Heating Degree Days 48 45  
Month to date heating degree days 471  
Since 1 July heating degree days 2330  
Cooling Degree Days 0 0  
Month to date cooling degree days 0  
Year to date cooling degree days 407  
Moisture  
Dew Point 17 °F    
Average Humidity 93    
Maximum Humidity 100    
Minimum Humidity 86    
Precipitation  
Precipitation 0.00 in 0.05 in 1.00 in (2010)
Month to date precipitation 0.54  
Year to date precipitation 31.59  
Snow  
Snow 0.00 in 0.50 in 12.80 in (2010)
Month to date snowfall 4.9  
Since 1 July snowfall 13.2  
Snow Depth -    
Sea Level Pressure  
Sea Level Pressure 29.88 in    
Wind  
Wind Speed 8 mph (SW)    
Max Wind Speed 14 mph    
Max Gust Speed 20 mph    
Visibility 9 miles    
Events Snow    
T = Trace of Precipitation, MM = Missing Value Source: NWS Daily Summary

Daily Weather History Graph

Daily Weather History Graph

Search for Another Location

Airport or City:

Trip Planner

Search our weather history database for the weather conditions in past years. The results will help you decide how hot, cold, wet, or windy it might be!

Date:

Astronomy

Dec. 11, 2012 Rise Set
Actual Time 7:26 AM CST 4:17 PM CST
Civil Twilight 6:52 AM CST 4:51 PM CST
Nautical Twilight 6:16 AM CST 5:28 PM CST
Astronomical Twilight 5:40 AM CST 6:03 PM CST
Moon 5:18 AM CST (12/11) 2:58 PM CST (12/11)
Length of Visible Light 9h 58m
Length of Day
8h 51m
Waning Crescent, 4% of the Moon is Illuminated
Dec 11
Waning Crescent
Dec 13
New
Dec 19
First Quarter
Dec 28
Full
Jan 4
Last Quarter

Hourly Weather History & Observations

Time (CST) Temp. Windchill Dew Point Humidity Pressure Visibility Wind Dir Wind Speed Gust Speed Precip Events Conditions
12:15 AM 19.4 °F 11.5 °F 17.6 °F 93% 29.86 in 10.0 mi SW 5.8 mph - N/A Snow Light Snow
12:35 AM 19.4 °F 9.5 °F 17.6 °F 93% 29.86 in 10.0 mi SW 8.1 mph - N/A Snow Light Snow
12:55 AM 19.4 °F 11.5 °F 17.6 °F 93% 29.86 in 10.0 mi SW 5.8 mph - N/A Snow Light Snow
1:15 AM 19.4 °F 11.5 °F 17.6 °F 93% 29.86 in 10.0 mi SW 5.8 mph - N/A Snow Light Snow
1:35 AM 19.4 °F 12.8 °F 17.6 °F 93% 29.86 in 10.0 mi SW 4.6 mph - N/A Snow Light Snow
1:55 AM 19.4 °F 10.4 °F 17.6 °F 93% 29.86 in 10.0 mi SW 6.9 mph - N/A Snow Light Snow
2:15 AM 19.4 °F 8.6 °F 17.6 °F 93% 29.86 in 7.0 mi SW 9.2 mph - N/A Snow Light Snow
2:35 AM 19.4 °F 11.5 °F 17.6 °F 93% 29.85 in 10.0 mi SSW 5.8 mph - N/A Snow Light Snow
2:55 AM 19.4 °F 11.5 °F 17.6 °F 93% 29.85 in 10.0 mi SSW 5.8 mph - N/A   Overcast
3:15 AM 19.4 °F 10.4 °F 19.4 °F 100% 29.85 in 10.0 mi SSW 6.9 mph - N/A   Overcast
3:35 AM 19.4 °F 10.4 °F 19.4 °F 100% 29.84 in 10.0 mi SSW 6.9 mph - N/A   Overcast
3:55 AM 19.4 °F 6.6 °F 19.4 °F 100% 29.84 in 10.0 mi SSW 12.7 mph - N/A   Overcast
4:15 AM 17.6 °F 7.3 °F 17.6 °F 100% 29.84 in 10.0 mi SSW 8.1 mph - N/A   Overcast
4:35 AM 17.6 °F 8.2 °F 17.6 °F 100% 29.84 in 7.0 mi South 6.9 mph - N/A   Overcast
5:45 AM 17.6 °F 5.0 °F 17.6 °F 100% 29.83 in 10.0 mi SSW 11.5 mph - N/A   Overcast
6:45 AM 15.8 °F 2.7 °F 15.8 °F 100% 29.83 in 10.0 mi South 11.5 mph - N/A   Overcast
7:45 AM 17.6 °F 9.3 °F 17.6 °F 100% 29.82 in 10.0 mi SSE 5.8 mph - N/A   Overcast
8:50 AM 17.6 °F 5.0 °F 17.6 °F 100% 29.80 in 10.0 mi South 11.5 mph - N/A   Overcast
9:20 AM 19.4 °F 7.2 °F 17.6 °F 93% 29.82 in 4.0 mi South 11.5 mph - N/A Snow Light Snow
9:45 AM 19.4 °F 9.5 °F 17.6 °F 93% 29.82 in 5.0 mi SSW 8.1 mph - N/A Snow Light Snow
10:50 AM 19.4 °F 6.6 °F 17.6 °F 93% 29.82 in 5.0 mi SW 12.7 mph - N/A Snow Light Snow
11:45 AM 19.4 °F 6.6 °F 17.6 °F 93% 29.81 in 5.0 mi SW 12.7 mph - N/A Snow Light Snow
12:50 PM 19.4 °F 6.0 °F 17.6 °F 93% 29.82 in 10.0 mi WSW 13.8 mph - N/A   Overcast
2:50 PM 19.4 °F 6.0 °F 15.8 °F 86% 29.84 in 10.0 mi SW 13.8 mph - N/A   Overcast
3:50 PM 19.4 °F 6.0 °F 15.8 °F 86% 29.84 in 10.0 mi SW 13.8 mph - N/A   Overcast
3:55 PM 19.4 °F 8.6 °F 15.8 °F 86% 29.85 in 10.0 mi SW 9.2 mph - N/A   Overcast
4:55 PM 19.4 °F 7.2 °F 15.8 °F 86% 29.87 in 10.0 mi SW 11.5 mph - N/A   Overcast
5:45 PM 19.4 °F 8.6 °F 17.6 °F 93% 29.89 in 3.0 mi WSW 9.2 mph - N/A Snow Light Snow
6:50 PM 19.4 °F 7.9 °F 17.6 °F 93% 29.91 in 4.0 mi SW 10.4 mph - N/A Snow Light Snow
7:52 PM 19.4 °F 7.2 °F 17.6 °F 93% 29.92 in 7.0 mi WSW 11.5 mph 17.3 mph N/A Snow Light Snow
8:45 PM 19.4 °F 7.9 °F 17.6 °F 93% 29.93 in 7.0 mi West 10.4 mph 18.4 mph N/A   Overcast
9:15 PM 19.4 °F 7.2 °F 17.6 °F 93% 29.95 in 10.0 mi West 11.5 mph - N/A   Overcast
9:35 PM 19.4 °F 9.5 °F 17.6 °F 93% 29.95 in 10.0 mi West 8.1 mph - N/A   Overcast
9:52 PM 19.4 °F 6.6 °F 15.8 °F 86% 29.96 in 10.0 mi West 12.7 mph 19.6 mph N/A   Overcast
9:55 PM 19.4 °F 6.6 °F 17.6 °F 93% 29.96 in 10.0 mi West 12.7 mph 19.6 mph N/A   Overcast
10:15 PM 19.4 °F 8.6 °F 17.6 °F 93% 29.97 in 10.0 mi West 9.2 mph - N/A   Overcast
10:35 PM 19.4 °F 6.0 °F 15.8 °F 86% 29.98 in 10.0 mi West 13.8 mph 17.3 mph N/A   Overcast
10:55 PM 19.4 °F 9.5 °F 15.8 °F 86% 29.99 in 10.0 mi West 8.1 mph - N/A   Overcast
11:15 PM 19.4 °F 11.5 °F 15.8 °F 86% 29.99 in 10.0 mi West 5.8 mph - N/A   Overcast
11:35 PM 19.4 °F 11.5 °F 15.8 °F 86% 30.00 in 10.0 mi West 5.8 mph - N/A   Overcast
11:55 PM 17.6 °F 7.3 °F 15.8 °F 93% 30.01 in 10.0 mi WSW 8.1 mph - N/A   Overcast